"Pseudo-MPEC" for P110DoO

Created 2020 May 25 4:07:11 UT using Find_Orb

Click here for an explanation of pseudo-MPECs

 
 Astrometry: 
     P110DoO  C2020 05 20+sJ_\.TdkH*AstrometryI33qtb%Cwredacted;6e/3=!clickBhF51
     P110DoO  C2020 05 20lT,RM07cF(dH23[E^0adS8TrHgi#/1o=rGD(9-Ghere95eaxv!]`F51
     P110DoO  C2020 05 20c!9!/eIv/L+@vH8forwlu6SB)CajE9gFPMc+Ae:explanation`hF51
     P110DoO ^C2020 05 21.56414119 48 52.171-33 05 27.73   ~5OMq 19.99GVNEOCP568
     P110DoO ^C2020 05 21.56509019 48 51.874-33 05 26.72   ~5OMq 19.97GVNEOCP568
     P110DoO ^C2020 05 21.56603819 48 51.576-33 05 25.87   ~5OMq 20.29GVNEOCP568
     P110DoO ^C2020 05 21.56725519 48 51.195-33 05 24.75   ~5OMq 20.14GVNEOCP568
     P110DoO ^C2020 05 22.58949719 43 32.191-32 49 32.80   ~5OMq 20.33GVNEOCP568
     P110DoO ^C2020 05 22.59051219 43 31.868-32 49 31.84   ~5OMq 20.28GVNEOCP568
     P110DoO ^C2020 05 22.59146419 43 31.563-32 49 30.89   ~5OMq 20.41GVNEOCP568
     P110DoO ^C2020 05 23.59591519 38 10.955-32 32 45.83   ~5OMq 20.06GVNEOCP568
     P110DoO ^C2020 05 23.59709519 38 10.577-32 32 44.53   ~5OMq 20.20GVNEOCP568
     P110DoO ^C2020 05 23.59828419 38 10.188-32 32 43.31   ~5OMq 20.24GVNEOCP568
     P110DoO ^C2020 05 24.58582819 32 48.412-32 15 04.92   ~5OMq 20.52GVNEOCP568
     P110DoO ^C2020 05 24.58703219 32 48.030-32 15 03.63   ~5OMq 20.18GVNEOCP568
     P110DoO ^C2020 05 24.58839319 32 47.544-32 15 02.08   ~5OMq 20.30GVNEOCP568
     P110DoO ^C2020 05 24.58957119 32 47.180-32 15 00.77   ~5OMq 20.76GVNEOCP568
     P110DoO ^C2020 05 24.59081919 32 46.745-32 14 59.33   ~5OMq 19.85GVNEOCP568
     P110DoO ^C2020 05 24.59200019 32 46.377-32 14 58.06   ~5OMq 20.69GVNEOCP568
     P110DoO ^C2020 05 24.59436119 32 45.591-32 14 55.47   ~5OMq 20.13GVNEOCP568

Station data:
(568) Mauna Kea  (N19.826116 W155.472200)  US/Hawaii.
(F51) Pan-STARRS 1, Haleakala  (N20.707235 W156.255910)  US/Hawaii.
   Observers N. Primak, A. Schultz, S. Watters, J. Thiel, T. Goggia. Measurer
   PS1 Science Consortium. 1.8-m Ritchey-Chrétien + CCD.

Orbital elements:  P110DoO
   Perihelion 2020 Mar 4.354978 +/- 7.7 TT =  8:31:10 (JD 2458912.854978)
Epoch 2020 May 24.0 TT = JDT 2458993.5   Earth MOID: 0.9525   Sa: 0.4900
M   0.58027821 +/- 2.0              (J2000 ecliptic)          AutoNEOCP
n   0.00719546 +/- 0.0142           Peri.  309.10623 +/- 4.5
a  26.5723676 +/- 34.9              Node   264.09732 +/- 0.023
e   0.9338705 +/- 0.0794            Incl.  125.64010 +/- 0.9
P 136.98                   H 17.5   G  0.15   U  9.9  
q 1.75721507 +/- 0.0569    Q 51.3875201 +/- 20
From 20 observations 2020 May 20-24; mean residual 0".11
Residuals in arcseconds: 
200520 F51  .23+  .04+    200522 568  .01-  .00     200524 568  .17+  .04-    
200520 F51  .15+  .04-    200522 568  .00   .02-    200524 568  .26-  .00     
200520 F51  .43-  .06+    200522 568  .01-  .01+    200524 568  .09+  .00     
200521 568  .07+  .16-    200523 568  .10-  .03-    200524 568  .16-  .05+    
200521 568  .05+  .00     200523 568  .01-  .05+    200524 568  .15+  .01+    
200521 568  .02+  .00     200523 568  .03-  .03+    200524 568  .14+  .02-    
200521 568  .00   .04+    200524 568  .06-  .00     

Ephemerides (geocentric):
Date (UTC) HH   RA              Dec         delta   r     elong  mag " sig PA
---- -- -- --  -------------   -----------  ------ ------ -----  --- ---- ---
2020 05 25 04  19 29 36.288   -32 04 03.06  1.1877 2.0276 134.1 20.4 .115  19
2020 05 25 05  19 29 22.423   -32 03 15.02  1.1872 2.0279 134.2 20.4 .126  17
2020 05 25 06  19 29 08.547   -32 02 26.85  1.1868 2.0282 134.3 20.4 .137  16
2020 05 25 07  19 28 54.661   -32 01 38.55  1.1864 2.0284 134.4 20.4 .148  15
2020 05 25 08  19 28 40.764   -32 00 50.12  1.1859 2.0287 134.5 20.4 .160  13
2020 05 25 09  19 28 26.857   -32 00 01.56  1.1855 2.0289 134.5 20.4 .172  12
2020 05 25 10  19 28 12.939   -31 59 12.87  1.1851 2.0292 134.6 20.4 .184  11
2020 05 25 11  19 27 59.011   -31 58 24.04  1.1846 2.0294 134.7 20.4 .197  10
2020 05 25 12  19 27 45.073   -31 57 35.09  1.1842 2.0297 134.8 20.4 .210   9
2020 05 25 13  19 27 31.124   -31 56 46.00  1.1838 2.0299 134.9 20.4 .223   9
2020 05 25 14  19 27 17.166   -31 55 56.78  1.1833 2.0302 135.0 20.4 .236   8
2020 05 25 15  19 27 03.197   -31 55 07.42  1.1829 2.0304 135.1 20.4 .249   7
2020 05 25 16  19 26 49.218   -31 54 17.93  1.1825 2.0307 135.2 20.4 .263   7
2020 05 25 17  19 26 35.229   -31 53 28.31  1.1821 2.0309 135.3 20.4 .277   6
2020 05 25 18  19 26 21.230   -31 52 38.56  1.1816 2.0312 135.3 20.4 .291   5
2020 05 25 19  19 26 07.220   -31 51 48.68  1.1812 2.0314 135.4 20.4 .306   5
2020 05 25 20  19 25 53.201   -31 50 58.66  1.1808 2.0317 135.5 20.4 .320   4
2020 05 25 21  19 25 39.172   -31 50 08.50  1.1804 2.0319 135.6 20.4 .335   4
2020 05 25 22  19 25 25.132   -31 49 18.22  1.1800 2.0322 135.7 20.4 .350   3
2020 05 25 23  19 25 11.083   -31 48 27.80  1.1795 2.0324 135.8 20.4 .366   3
2020 05 26 00  19 24 57.024   -31 47 37.24  1.1791 2.0327 135.9 20.4 .381   3
2020 05 26 01  19 24 42.955   -31 46 46.56  1.1787 2.0329 136.0 20.4 .397   2
2020 05 26 02  19 24 28.877   -31 45 55.73  1.1783 2.0332 136.1 20.4 .413   2
2020 05 26 03  19 24 14.788   -31 45 04.78  1.1779 2.0334 136.1 20.4 .430   1
2020 05 26 04  19 24 00.690   -31 44 13.69  1.1775 2.0337 136.2 20.4 .446   1
2020 05 26 05  19 23 46.582   -31 43 22.46  1.1771 2.0339 136.3 20.4 .463   1
2020 05 26 06  19 23 32.465   -31 42 31.10  1.1766 2.0342 136.4 20.4 .480   0
2020 05 26 07  19 23 18.338   -31 41 39.61  1.1762 2.0344 136.5 20.4 .497   0
2020 05 26 08  19 23 04.201   -31 40 47.98  1.1758 2.0347 136.6 20.4 .515 179
2020 05 26 09  19 22 50.055   -31 39 56.21  1.1754 2.0350 136.7 20.4 .533 179
2020 05 26 10  19 22 35.899   -31 39 04.31  1.1750 2.0352 136.8 20.4 .551 179
2020 05 26 11  19 22 21.734   -31 38 12.28  1.1746 2.0355 136.9 20.4 .569 178
2020 05 26 12  19 22 07.559   -31 37 20.10  1.1742 2.0357 137.0 20.4 .588 178
2020 05 26 13  19 21 53.375   -31 36 27.80  1.1738 2.0360 137.0 20.4 .607 178
2020 05 26 14  19 21 39.182   -31 35 35.36  1.1734 2.0362 137.1 20.4 .626 177
2020 05 26 15  19 21 24.979   -31 34 42.78  1.1730 2.0365 137.2 20.4 .645 177
2020 05 26 16  19 21 10.768   -31 33 50.06  1.1726 2.0367 137.3 20.4 .665 177
2020 05 26 17  19 20 56.546   -31 32 57.21  1.1722 2.0370 137.4 20.4 .685 177
2020 05 26 18  19 20 42.316   -31 32 04.23  1.1718 2.0372 137.5 20.4 .705 176
2020 05 26 19  19 20 28.077   -31 31 11.10  1.1714 2.0375 137.6 20.4 .725 176
2020 05 26 20  19 20 13.828   -31 30 17.84  1.1710 2.0377 137.7 20.4 .746 176
2020 05 26 21  19 19 59.570   -31 29 24.45  1.1707 2.0380 137.8 20.4 .767 175
2020 05 26 22  19 19 45.304   -31 28 30.91  1.1703 2.0382 137.9 20.4 .789 175
2020 05 26 23  19 19 31.028   -31 27 37.25  1.1699 2.0385 137.9 20.4 .810 175
2020 05 27 00  19 19 16.743   -31 26 43.44  1.1695 2.0388 138.0 20.4 .832 175
2020 05 27 01  19 19 02.450   -31 25 49.49  1.1691 2.0390 138.1 20.4 .854 174
2020 05 27 02  19 18 48.147   -31 24 55.41  1.1687 2.0393 138.2 20.4 .877 174
2020 05 27 03  19 18 33.836   -31 24 01.20  1.1683 2.0395 138.3 20.4 .899 174